SCP
-0 -0 -0 -0 -0 -0 -0 -0 -0 -0 -0 -0 -0 -0 0 0 -0 -0 -0 -0 -0 -0 -0 -0 -0 0 0 -0 0 0 0 0 0 0 0 -0 -0 0 0 0 0 0 0 -0 -0 0 -0
-0 -0 -0 -0 -0 -0 -0 -0 -0 -0 -0 -0 -0 -0 -0 -0 0 -0 -0 -0 -0 -0 -0 -0 0 0 0 0 0 0 0 -0 0 0 -0 -0 0 0 0 0 0 0 0 0 0 0 -0
-0 -0 -0 -0 -0 -0 -0 -0 -0 -0 -0 -0 -0 -0 -0 -0 -0 0 -0 -0 -0 -0 -0 -0 -0 0 0 -0 0 0 0 0 0 0 -0 0 0 0 0 0 0 0 0 0 0 0 -0
0 0 0 0 0 0 -0 -0 -0 -0 -0 -0 -0 -0 -0 -0 -0 -0 -0 0 0 0 0 -0 0 0 0 0 0 0 0 0 0 0 0 0 0 0 0 0 0 -0 -0 -0 0 0 -0
0 0 0 0 0 0 0 0 -0 -0 -0 -0 -0 -0 -0 -0 -0 -0 -0 -0 0 0 0 0 0 0 0 0 0 0 0 0 0 0 0 0 0 0 0 -0 -0 -0 0 -0 0 -0 0
0 0 0 0 0 0 0 0 0 0 -0 -0 -0 -0 -0 -0 -0 -0 -0 -0 0 0 0 0 0 0 0 0 0 0 0 0 0 0 0 0 0 0 -0 -0 -0 -0 0 -0 -0 0 0
0 0 0 0 0 0 0 0 0 0 0 0 -0 -0 -0 -0 -0 -0 -0 0 0 0 0 0 0 0 0 0 0 0 0 0 0 0 -0 -0 -0 -0 0 -0 0 0 -0 -0 -0 0 0
0 0 0 0 0 0 0 0 0 0 0 0 0 0 0 -0 -0 -0 0 0 0 -0 0 0 0 0 0 0 0 0 0 0 0 -0 -0 -0 0 0 -0 -0 -0 0 0 -0 0 0 0
0 0 0 0 0 0 0 0 0 0 0 0 0 0 0 -0 -0 0 0 0 0 0 0 0 0 0 0 0 0 0 0 0 0 0 -0 -0 0 -0 -0 -0 -0 -0 -0 -0 -0 -0 0
0 0 0 0 0 0 0 0 0 0 0 0 0 0 0 0 0 0 0 0 0 0 0 0 0 0 0 0 0 0 0 0 0 0 0 0 0 -0 -0 -0 -0 0 -0 -0 0 -0 -0
0 0 0 0 0 0 0 0 0 0 0 0 0 0 0 0 0 0 0 0 0 0 0 0 0 0 0 0 0 0 0 0 0 0 0 0 0 0 -0 -0 -0 0 0 -0 -0 -0 0
0 0 0 0 0 0 0 0 0 0 0 0 0 0 0 -0 0 0 0 0 0 0 0 0 0 0 0 0 0 0 0 0 0 0 0 0 0 0 -0 -0 0 0 0 0 0 -0 -0
0 0 0 0 0 0 0 0 0 0 0 0 0 0 0 0 0 0 0 0 0 0 0 0 0 0 0 0 0 0 0 0 0 0 0 0 0 0 0 0 0 0 0 0 0 -0 -0
0 0 0 0 0 0 0 0 0 0 0 0 0 0 0 -0 0 0 0 0 0 0 0 0 0 0 0 0 0 0 0 0 0 0 0 0 0 0 0 0 0 0 0 0 0 0 0
0 0 0 0 0 0 0 0 0 0 0 0 0 0 0 0 0 0 0 0 0 0 0 0 0 0 0 0 0 0 0 0 0 0 0 0 0 0 0 0 0 0 -0 -0 0 0 0
0 0 0 0 0 0 0 0 0 0 0 0 0 0 0 0 0 0 0 0 0 0 0 0 0 0 0 0 0 0 0 0 0 0 0 0 0 0 0 0 0 0 0 0 0 0 -0
0 0 0 0 0 0 0 0 0 0 0 0 0 0 0 0 0 0 0 0 0 0 0 0 0 0 0 0 0 0 0 0 0 0 0 0 0 0 0 0 0 0 0 0 0 0 -0
0 0 0 0 0 0 0 0 0 0 0 -0 0 0 0 0 0 0 0 0 0 0 0 0 0 0 0 0 0 0 0 0 0 0 0 0 0 0 0 0 0 0 0 0 0 0 0
0 0 0 0 0 0 0 0 0 0 0 0 0 0 0 0 0 0 0 0 0 0 0 0 0 0 0 0 0 0 0 0 0 0 0 0 0 0 0 0 0 0 0 0 0 0 0
0 0 0 0 0 0 0 0 0 0 0 0 0 0 0 0 0 0 0 0 0 0 0 0 0 0 0 0 0 0 0 0 0 0 0 0 0 0 0 0 0 0 0 0 0 0 0
0 0 0 0 0 0 0 0 0 0 0 0 0 0 0 0 0 0 0 0 0 0 0 0 0 0 0 0 0 0 0 0 0 0 0 0 0 0 0 0 0 0 0 0 0 0 0
0 0 0 0 0 0 0 0 0 0 0 0 0 0 0 0 0 0 0 0 0 0 0 0 0 0 0 0 0 0 0 0 0 0 0 0 0 0 0 0 0 0 0 0 0 0 0
0 0 0 0 0 0 0 0 0 0 0 0 0 0 0 0 0 0 0 0 0 0 0 0 0 0 0 0 0 0 0 0 0 0 0 0 0 0 0 0 0 0 0 0 0 0 0
0 0 0 0 0 0 0 0 0 0 0 0 0 0 0 0 0 0 0 0 0 0 0 0 0 0 0 0 0 0 0 0 0 0 0 0 0 0 0 0 0 0 0 0 0 0 0
0 0 0 0 0 0 0 0 0 0 0 0 0 0 0 0 0 0 0 0 0 0 0 0 0 0 0 0 0 0 0 0 0 0 0 0 0 0 0 0 0 0 0 0 0 0 0
0 0 0 0 0 0 0 0 0 0 0 0 0 0 0 0 0 0 0 0 0 0 0 0 0 0 0 0 0 0 0 0 0 0 0 0 0 0 0 0 0 0 0 0 0 0 0
0 0 0 0 0 0 0 0 0 0 0 0 0 0 0 0 0 0 0 0 0 0 0 0 0 0 0 0 0 0 0 0 0 0 0 0 0 0 0 0 0 0 0 0 0 0 0
0 0 0 0 0 0 0 -0 0 -0 0 0 0 0 0 0 0 0 -0 0 0 0 0 0 0 0 0 0 0 0 0 0 0 0 0 0 0 0 0 0 0 0 0 0 0 0 0
0 0 0 0 0 0 0 -0 0 -0 0 0 0 0 0 0 0 0 0 0 0 0 0 0 0 0 0 0 0 0 0 0 0 0 0 0 0 0 0 0 0 0 -0 0 0 0 0
Wind_Speed_500mb
36 35 34 31 30 31 33 33 34 34 33 33 35 34 34 34 34 36 36 35 33 32 32 29 27 25 23 14 24 19 15 10 36 43 42 37 31 27 19 3 8 15 7 10 18 23 23
38 36 36 37 36 36 35 34 35 36 37 37 36 37 38 36 36 35 37 38 35 33 33 29 26 24 17 26 19 17 20 16 28 45 43 40 25 25 14 7 10 6 9 23 25 27 22
37 37 36 36 37 38 39 38 37 36 38 38 39 40 39 39 38 37 36 39 36 33 32 29 24 22 22 30 17 14 12 20 28 42 43 42 26 25 9 11 8 12 25 24 26 26 18
35 36 38 38 37 37 38 39 40 40 40 40 40 40 40 40 40 37 36 36 36 32 28 25 22 17 18 20 17 27 14 16 23 33 34 35 24 24 19 8 15 20 22 23 22 24 12
37 37 37 38 38 39 40 40 40 40 41 42 43 42 40 40 41 37 34 33 32 30 23 17 14 12 17 17 19 24 27 22 29 25 26 28 25 28 21 24 21 19 24 19 21 26 17
38 37 40 41 40 39 38 37 40 42 43 43 45 44 42 41 40 37 31 30 25 22 18 11 17 10 23 15 15 28 32 29 28 30 25 28 28 21 25 26 26 31 28 26 20 26 23
39 39 39 40 41 41 41 41 39 39 41 42 46 48 45 40 39 34 23 15 8 7 14 20 4 8 8 17 11 24 38 30 25 37 30 41 30 38 42 37 28 17 29 27 20 23 27
38 40 41 42 44 45 46 46 47 49 47 43 43 44 48 41 38 20 14 3 6 9 21 32 42 40 23 11 19 29 41 33 35 34 37 27 41 42 37 37 27 26 28 26 16 19 25
39 41 42 44 45 47 47 48 48 49 52 52 48 48 45 40 22 26 9 8 9 19 16 19 37 41 39 45 32 41 49 49 35 39 42 38 35 38 35 33 34 33 34 32 23 21 25
41 42 43 45 45 47 49 49 48 49 51 51 50 49 49 38 11 23 2 15 23 14 11 17 18 16 36 32 35 44 49 47 27 41 38 41 34 41 38 44 40 37 30 29 22 20 19
41 40 42 44 46 47 47 48 50 50 50 50 50 47 48 38 29 15 14 15 20 1 11 17 19 16 23 43 24 61 49 51 34 28 33 34 39 40 46 45 41 32 28 25 27 29 14
41 44 45 44 45 46 48 49 49 50 53 52 51 46 48 38 31 11 7 11 4 12 17 16 19 25 29 43 22 49 60 48 37 30 35 31 16 36 45 42 38 15 24 26 22 26 22
40 44 47 47 47 48 49 48 49 51 51 53 53 50 42 39 13 25 15 5 12 17 8 19 20 27 34 27 36 32 51 50 31 36 31 39 27 29 37 44 32 36 36 19 21 22 27
41 44 46 46 47 48 47 49 49 51 52 52 52 52 41 30 23 20 9 15 25 9 26 3 12 25 31 28 40 38 47 48 51 42 30 38 37 41 34 42 34 50 42 28 34 28 31
42 45 46 44 44 46 49 49 48 48 53 53 49 38 25 21 18 16 20 27 14 26 16 12 16 26 33 27 20 42 48 52 55 49 34 40 45 54 31 44 43 46 49 44 45 39 19
45 46 48 47 46 45 44 47 47 48 51 50 51 32 13 18 14 13 19 40 33 13 15 16 30 24 29 36 30 40 43 49 51 54 45 20 28 31 44 40 44 48 38 37 27 42 43
45 47 46 45 48 44 42 43 45 45 50 47 29 20 8 8 7 19 24 37 35 38 23 15 18 30 24 21 35 35 30 30 55 51 45 36 24 34 36 47 40 25 32 30 40 40 38
43 40 40 41 42 40 37 38 41 42 47 31 16 9 7 8 16 20 22 21 11 31 50 33 15 22 28 26 26 32 40 31 37 45 54 47 28 25 43 42 49 47 45 48 31 42 24
41 41 42 41 36 35 33 34 35 37 37 30 22 19 13 7 13 20 23 20 26 35 34 35 34 24 17 23 18 28 25 3 11 42 48 44 26 29 37 26 23 39 50 48 46 39 46
41 40 39 39 38 37 35 34 29 32 30 20 15 8 7 8 8 14 15 26 24 24 32 46 37 39 34 30 23 8 20 9 15 40 17 37 40 43 37 42 33 37 40 43 44 36 40
42 40 39 38 36 35 35 32 26 27 23 11 9 2 7 5 5 14 14 16 21 21 22 21 29 42 37 37 35 29 22 11 12 11 22 33 43 44 48 44 37 42 44 40 49 49 45
41 42 41 38 36 35 35 28 22 21 17 11 13 10 5 25 20 20 11 20 14 7 14 17 17 24 27 37 33 33 33 24 17 20 27 18 22 35 43 42 41 39 37 43 52 50 48
42 40 40 36 36 35 31 28 19 19 15 12 10 15 14 14 14 14 15 11 12 14 12 12 11 26 15 6 26 34 33 30 12 11 16 15 20 21 34 42 42 47 62 58 51 41 41
43 42 41 40 39 34 31 27 19 19 20 20 12 12 11 16 14 13 13 20 27 26 25 28 31 23 11 37 40 38 43 43 34 26 18 7 14 16 25 30 50 42 47 52 50 46 44
47 47 47 45 43 38 34 28 25 20 23 24 22 16 8 13 20 18 24 22 30 31 34 36 30 33 26 31 17 21 22 37 49 41 34 22 18 18 24 35 27 48 8 35 40 51 50
49 50 51 49 47 43 39 35 29 25 26 30 27 25 15 7 16 23 21 14 17 20 21 32 12 27 21 16 20 37 35 32 33 39 46 37 30 23 22 43 57 36 27 32 32 39 38
48 52 53 54 50 45 43 38 35 31 26 29 29 26 17 12 21 34 22 24 26 15 16 22 10 10 15 20 23 26 33 40 38 44 36 41 36 43 34 34 27 27 33 32 39 18 40
50 53 54 59 46 41 37 28 36 36 34 31 27 27 30 26 34 34 40 39 30 24 15 9 17 7 14 19 16 24 26 32 34 42 47 37 34 38 36 44 50 3 11 32 27 31 13
54 53 62 43 39 30 25 29 30 31 29 34 31 24 25 29 32 28 34 37 53 49 40 26 28 9 10 8 6 11 15 17 26 34 42 37 33 30 37 34 9 65 45 30 9 7 7
Wind_Direction_500mb
358 355 352 350 347 342 339 339 337 335 330 326 322 319 318 316 312 308 307 305 304 301 297 297 297 298 304 268 258 244 239 270 189 186 191 197 210 229 249 241 239 259 18 150 141 138 127
359 357 355 351 350 349 346 343 339 335 333 331 328 322 318 315 313 309 306 303 302 299 295 292 289 289 284 262 254 243 232 217 202 190 196 201 217 230 293 238 282 338 99 140 143 134 144
360 359 358 356 353 352 351 348 345 342 337 334 330 326 320 316 313 309 305 303 303 298 295 290 282 276 262 253 255 223 181 174 186 195 201 203 221 222 212 186 171 146 131 133 144 150 152
357 355 354 353 352 350 348 346 345 344 341 338 334 329 324 320 314 310 306 300 301 297 291 285 276 263 258 252 228 215 200 189 190 189 203 199 215 233 235 155 176 193 184 168 156 167 152
350 349 348 346 346 346 344 342 340 339 339 338 336 334 331 327 319 313 307 301 299 294 287 273 261 220 260 249 224 207 189 174 157 166 184 204 206 223 191 209 193 196 192 194 161 197 154
345 344 343 343 342 342 342 340 338 337 337 337 334 333 332 334 325 318 310 305 299 286 274 259 229 240 228 200 166 172 175 171 166 163 161 185 199 210 219 208 207 190 239 183 180 186 198
344 342 341 340 340 340 339 337 336 334 333 334 333 332 330 338 330 325 316 325 303 246 230 232 221 229 149 169 168 173 167 163 174 182 187 193 202 206 201 214 236 236 215 201 190 158 202
344 341 340 339 338 337 336 334 334 332 331 331 330 330 328 341 337 345 342 16 64 315 297 245 241 237 227 180 183 176 178 183 180 196 203 180 218 204 207 212 229 232 229 222 136 172 214
342 340 338 336 336 336 334 333 332 331 329 329 330 329 326 341 344 4 89 56 352 342 261 256 225 229 217 213 218 187 185 200 198 205 198 211 203 208 209 199 219 228 226 222 218 176 220
340 338 337 335 335 333 333 332 331 329 327 326 328 331 328 337 19 350 334 316 340 329 268 176 201 220 193 191 219 207 195 190 208 209 202 229 213 196 200 205 207 216 226 237 182 206 227
340 338 338 336 335 333 331 331 330 328 326 326 324 328 326 333 321 329 262 295 324 263 273 119 145 164 171 187 162 194 194 200 204 200 195 204 202 202 206 203 205 233 171 217 205 220 249
340 339 339 336 334 333 331 330 327 325 323 324 322 324 321 327 321 283 280 300 303 228 238 170 152 178 168 207 192 162 187 204 218 201 211 223 216 213 210 207 199 192 191 207 218 236 228
336 333 333 335 334 334 332 329 327 324 321 320 319 319 317 310 286 278 273 245 215 238 102 182 188 180 196 178 192 183 186 194 192 190 197 214 196 209 223 205 197 185 175 186 214 216 244
334 332 331 331 330 331 332 333 328 326 322 319 317 317 320 303 288 263 226 216 230 212 221 83 212 191 197 181 202 195 192 197 208 206 191 195 205 192 202 209 192 208 202 230 217 232 236
337 334 334 333 330 329 330 331 331 329 328 326 322 324 317 297 272 235 210 217 216 228 249 230 193 208 204 191 211 199 205 208 202 205 229 200 219 187 200 208 210 205 222 228 247 251 273
324 322 323 326 328 329 331 335 333 330 332 335 331 322 292 294 254 195 227 234 231 244 322 257 237 208 209 197 197 195 198 213 212 205 218 198 221 184 196 206 222 224 204 216 231 245 242
320 319 315 313 316 317 323 330 334 330 333 337 335 307 271 14 160 211 231 230 242 242 253 266 250 245 236 216 204 198 214 214 210 196 216 217 230 182 203 207 201 199 225 222 240 225 244
325 326 328 329 324 320 316 324 331 331 335 353 322 276 301 343 247 233 241 235 308 265 243 245 267 271 265 229 237 232 217 212 208 197 203 215 210 218 206 218 224 220 216 214 226 224 249
334 326 325 329 327 326 320 320 327 331 336 339 308 284 285 246 256 233 236 271 256 265 248 250 231 232 239 253 245 239 219 353 235 217 203 199 224 211 230 185 213 233 218 224 226 238 228
331 331 327 325 324 322 322 321 317 324 330 341 304 288 192 243 275 296 306 269 261 261 260 265 263 252 248 244 241 238 221 178 221 226 166 221 216 225 214 217 195 211 224 225 236 227 234
332 331 330 327 327 323 321 315 310 313 320 334 261 360 338 291 168 314 273 297 276 271 264 297 241 246 247 236 240 219 242 200 179 117 198 213 221 227 232 254 215 204 210 206 222 229 230
335 329 328 326 323 325 325 316 301 299 304 259 286 299 290 283 281 270 221 252 266 300 286 247 286 359 289 255 244 229 236 235 216 182 193 213 222 231 227 229 244 235 230 220 218 228 238
334 331 329 326 323 323 320 317 294 287 278 263 256 268 267 276 267 270 266 248 285 316 260 282 1 323 275 316 333 301 302 298 316 300 181 216 218 206 225 225 231 241 230 227 233 230 233
330 328 325 322 321 319 314 308 297 275 269 260 260 274 281 273 268 278 289 284 278 277 278 285 300 291 322 320 303 263 255 254 251 235 243 228 219 217 224 213 223 249 227 226 240 236 233
330 329 325 320 316 311 307 305 286 273 264 257 258 239 233 270 282 278 267 285 285 272 261 269 281 282 303 302 263 222 210 230 235 234 226 220 252 221 222 223 233 246 202 226 220 234 232
332 329 325 318 311 304 293 289 285 273 262 257 251 242 232 263 255 278 268 271 297 297 280 254 269 289 277 262 239 227 215 211 221 227 226 223 222 246 212 236 234 234 236 214 231 240 229
336 337 330 321 309 305 298 284 269 263 256 255 252 240 228 249 264 263 254 287 296 256 273 281 329 290 231 252 242 226 226 218 221 211 209 204 212 221 227 246 250 248 244 195 222 237 223
332 330 325 325 323 310 298 285 281 255 249 249 250 236 225 257 266 255 255 262 251 251 270 321 300 198 242 251 252 233 237 224 223 226 210 202 199 215 222 228 232 219 185 217 232 236 253
335 333 332 331 335 330 317 307 293 269 256 235 243 242 239 240 258 267 260 253 248 253 264 288 282 313 327 283 337 301 267 245 223 219 232 205 210 218 209 219 309 210 230 217 258 257 250
Wind_Speed_850mb
36 35 34 31 30 31 33 33 34 34 33 33 35 34 34 34 34 36 36 35 33 32 32 29 27 25 23 14 24 19 15 10 36 43 42 37 31 27 19 3 8 15 7 10 18 23 23
38 36 36 37 36 36 35 34 35 36 37 37 36 37 38 36 36 35 37 38 35 33 33 29 26 24 17 26 19 17 20 16 28 45 43 40 25 25 14 7 10 6 9 23 25 27 22
37 37 36 36 37 38 39 38 37 36 38 38 39 40 39 39 38 37 36 39 36 33 32 29 24 22 22 30 17 14 12 20 28 42 43 42 26 25 9 11 8 12 25 24 26 26 18
35 36 38 38 37 37 38 39 40 40 40 40 40 40 40 40 40 37 36 36 36 32 28 25 22 17 18 20 17 27 14 16 23 33 34 35 24 24 19 8 15 20 22 23 22 24 12
37 37 37 38 38 39 40 40 40 40 41 42 43 42 40 40 41 37 34 33 32 30 23 17 14 12 17 17 19 24 27 22 29 25 26 28 25 28 21 24 21 19 24 19 21 26 17
38 37 40 41 40 39 38 37 40 42 43 43 45 44 42 41 40 37 31 30 25 22 18 11 17 10 23 15 15 28 32 29 28 30 25 28 28 21 25 26 26 31 28 26 20 26 23
39 39 39 40 41 41 41 41 39 39 41 42 46 48 45 40 39 34 23 15 8 7 14 20 4 8 8 17 11 24 38 30 25 37 30 41 30 38 42 37 28 17 29 27 20 23 27
38 40 41 42 44 45 46 46 47 49 47 43 43 44 48 41 38 20 14 3 6 9 21 32 42 40 23 11 19 29 41 33 35 34 37 27 41 42 37 37 27 26 28 26 16 19 25
39 41 42 44 45 47 47 48 48 49 52 52 48 48 45 40 22 26 9 8 9 19 16 19 37 41 39 45 32 41 49 49 35 39 42 38 35 38 35 33 34 33 34 32 23 21 25
41 42 43 45 45 47 49 49 48 49 51 51 50 49 49 38 11 23 2 15 23 14 11 17 18 16 36 32 35 44 49 47 27 41 38 41 34 41 38 44 40 37 30 29 22 20 19
41 40 42 44 46 47 47 48 50 50 50 50 50 47 48 38 29 15 14 15 20 1 11 17 19 16 23 43 24 61 49 51 34 28 33 34 39 40 46 45 41 32 28 25 27 29 14
41 44 45 44 45 46 48 49 49 50 53 52 51 46 48 38 31 11 7 11 4 12 17 16 19 25 29 43 22 49 60 48 37 30 35 31 16 36 45 42 38 15 24 26 22 26 22
40 44 47 47 47 48 49 48 49 51 51 53 53 50 42 39 13 25 15 5 12 17 8 19 20 27 34 27 36 32 51 50 31 36 31 39 27 29 37 44 32 36 36 19 21 22 27
41 44 46 46 47 48 47 49 49 51 52 52 52 52 41 30 23 20 9 15 25 9 26 3 12 25 31 28 40 38 47 48 51 42 30 38 37 41 34 42 34 50 42 28 34 28 31
42 45 46 44 44 46 49 49 48 48 53 53 49 38 25 21 18 16 20 27 14 26 16 12 16 26 33 27 20 42 48 52 55 49 34 40 45 54 31 44 43 46 49 44 45 39 19
45 46 48 47 46 45 44 47 47 48 51 50 51 32 13 18 14 13 19 40 33 13 15 16 30 24 29 36 30 40 43 49 51 54 45 20 28 31 44 40 44 48 38 37 27 42 43
45 47 46 45 48 44 42 43 45 45 50 47 29 20 8 8 7 19 24 37 35 38 23 15 18 30 24 21 35 35 30 30 55 51 45 36 24 34 36 47 40 25 32 30 40 40 38
43 40 40 41 42 40 37 38 41 42 47 31 16 9 7 8 16 20 22 21 11 31 50 33 15 22 28 26 26 32 40 31 37 45 54 47 28 25 43 42 49 47 45 48 31 42 24
41 41 42 41 36 35 33 34 35 37 37 30 22 19 13 7 13 20 23 20 26 35 34 35 34 24 17 23 18 28 25 3 11 42 48 44 26 29 37 26 23 39 50 48 46 39 46
41 40 39 39 38 37 35 34 29 32 30 20 15 8 7 8 8 14 15 26 24 24 32 46 37 39 34 30 23 8 20 9 15 40 17 37 40 43 37 42 33 37 40 43 44 36 40
42 40 39 38 36 35 35 32 26 27 23 11 9 2 7 5 5 14 14 16 21 21 22 21 29 42 37 37 35 29 22 11 12 11 22 33 43 44 48 44 37 42 44 40 49 49 45
41 42 41 38 36 35 35 28 22 21 17 11 13 10 5 25 20 20 11 20 14 7 14 17 17 24 27 37 33 33 33 24 17 20 27 18 22 35 43 42 41 39 37 43 52 50 48
42 40 40 36 36 35 31 28 19 19 15 12 10 15 14 14 14 14 15 11 12 14 12 12 11 26 15 6 26 34 33 30 12 11 16 15 20 21 34 42 42 47 62 58 51 41 41
43 42 41 40 39 34 31 27 19 19 20 20 12 12 11 16 14 13 13 20 27 26 25 28 31 23 11 37 40 38 43 43 34 26 18 7 14 16 25 30 50 42 47 52 50 46 44
47 47 47 45 43 38 34 28 25 20 23 24 22 16 8 13 20 18 24 22 30 31 34 36 30 33 26 31 17 21 22 37 49 41 34 22 18 18 24 35 27 48 8 35 40 51 50
49 50 51 49 47 43 39 35 29 25 26 30 27 25 15 7 16 23 21 14 17 20 21 32 12 27 21 16 20 37 35 32 33 39 46 37 30 23 22 43 57 36 27 32 32 39 38
48 52 53 54 50 45 43 38 35 31 26 29 29 26 17 12 21 34 22 24 26 15 16 22 10 10 15 20 23 26 33 40 38 44 36 41 36 43 34 34 27 27 33 32 39 18 40
50 53 54 59 46 41 37 28 36 36 34 31 27 27 30 26 34 34 40 39 30 24 15 9 17 7 14 19 16 24 26 32 34 42 47 37 34 38 36 44 50 3 11 32 27 31 13
54 53 62 43 39 30 25 29 30 31 29 34 31 24 25 29 32 28 34 37 53 49 40 26 28 9 10 8 6 11 15 17 26 34 42 37 33 30 37 34 9 65 45 30 9 7 7
Wind_Direction_850mb
358 355 352 350 347 342 339 339 337 335 330 326 322 319 318 316 312 308 307 305 304 301 297 297 297 298 304 268 258 244 239 270 189 186 191 197 210 229 249 241 239 259 18 150 141 138 127
359 357 355 351 350 349 346 343 339 335 333 331 328 322 318 315 313 309 306 303 302 299 295 292 289 289 284 262 254 243 232 217 202 190 196 201 217 230 293 238 282 338 99 140 143 134 144
360 359 358 356 353 352 351 348 345 342 337 334 330 326 320 316 313 309 305 303 303 298 295 290 282 276 262 253 255 223 181 174 186 195 201 203 221 222 212 186 171 146 131 133 144 150 152
357 355 354 353 352 350 348 346 345 344 341 338 334 329 324 320 314 310 306 300 301 297 291 285 276 263 258 252 228 215 200 189 190 189 203 199 215 233 235 155 176 193 184 168 156 167 152
350 349 348 346 346 346 344 342 340 339 339 338 336 334 331 327 319 313 307 301 299 294 287 273 261 220 260 249 224 207 189 174 157 166 184 204 206 223 191 209 193 196 192 194 161 197 154
345 344 343 343 342 342 342 340 338 337 337 337 334 333 332 334 325 318 310 305 299 286 274 259 229 240 228 200 166 172 175 171 166 163 161 185 199 210 219 208 207 190 239 183 180 186 198
344 342 341 340 340 340 339 337 336 334 333 334 333 332 330 338 330 325 316 325 303 246 230 232 221 229 149 169 168 173 167 163 174 182 187 193 202 206 201 214 236 236 215 201 190 158 202
344 341 340 339 338 337 336 334 334 332 331 331 330 330 328 341 337 345 342 16 64 315 297 245 241 237 227 180 183 176 178 183 180 196 203 180 218 204 207 212 229 232 229 222 136 172 214
342 340 338 336 336 336 334 333 332 331 329 329 330 329 326 341 344 4 89 56 352 342 261 256 225 229 217 213 218 187 185 200 198 205 198 211 203 208 209 199 219 228 226 222 218 176 220
340 338 337 335 335 333 333 332 331 329 327 326 328 331 328 337 19 350 334 316 340 329 268 176 201 220 193 191 219 207 195 190 208 209 202 229 213 196 200 205 207 216 226 237 182 206 227
340 338 338 336 335 333 331 331 330 328 326 326 324 328 326 333 321 329 262 295 324 263 273 119 145 164 171 187 162 194 194 200 204 200 195 204 202 202 206 203 205 233 171 217 205 220 249
340 339 339 336 334 333 331 330 327 325 323 324 322 324 321 327 321 283 280 300 303 228 238 170 152 178 168 207 192 162 187 204 218 201 211 223 216 213 210 207 199 192 191 207 218 236 228
336 333 333 335 334 334 332 329 327 324 321 320 319 319 317 310 286 278 273 245 215 238 102 182 188 180 196 178 192 183 186 194 192 190 197 214 196 209 223 205 197 185 175 186 214 216 244
334 332 331 331 330 331 332 333 328 326 322 319 317 317 320 303 288 263 226 216 230 212 221 83 212 191 197 181 202 195 192 197 208 206 191 195 205 192 202 209 192 208 202 230 217 232 236
337 334 334 333 330 329 330 331 331 329 328 326 322 324 317 297 272 235 210 217 216 228 249 230 193 208 204 191 211 199 205 208 202 205 229 200 219 187 200 208 210 205 222 228 247 251 273
324 322 323 326 328 329 331 335 333 330 332 335 331 322 292 294 254 195 227 234 231 244 322 257 237 208 209 197 197 195 198 213 212 205 218 198 221 184 196 206 222 224 204 216 231 245 242
320 319 315 313 316 317 323 330 334 330 333 337 335 307 271 14 160 211 231 230 242 242 253 266 250 245 236 216 204 198 214 214 210 196 216 217 230 182 203 207 201 199 225 222 240 225 244
325 326 328 329 324 320 316 324 331 331 335 353 322 276 301 343 247 233 241 235 308 265 243 245 267 271 265 229 237 232 217 212 208 197 203 215 210 218 206 218 224 220 216 214 226 224 249
334 326 325 329 327 326 320 320 327 331 336 339 308 284 285 246 256 233 236 271 256 265 248 250 231 232 239 253 245 239 219 353 235 217 203 199 224 211 230 185 213 233 218 224 226 238 228
331 331 327 325 324 322 322 321 317 324 330 341 304 288 192 243 275 296 306 269 261 261 260 265 263 252 248 244 241 238 221 178 221 226 166 221 216 225 214 217 195 211 224 225 236 227 234
332 331 330 327 327 323 321 315 310 313 320 334 261 360 338 291 168 314 273 297 276 271 264 297 241 246 247 236 240 219 242 200 179 117 198 213 221 227 232 254 215 204 210 206 222 229 230
335 329 328 326 323 325 325 316 301 299 304 259 286 299 290 283 281 270 221 252 266 300 286 247 286 359 289 255 244 229 236 235 216 182 193 213 222 231 227 229 244 235 230 220 218 228 238
334 331 329 326 323 323 320 317 294 287 278 263 256 268 267 276 267 270 266 248 285 316 260 282 1 323 275 316 333 301 302 298 316 300 181 216 218 206 225 225 231 241 230 227 233 230 233
330 328 325 322 321 319 314 308 297 275 269 260 260 274 281 273 268 278 289 284 278 277 278 285 300 291 322 320 303 263 255 254 251 235 243 228 219 217 224 213 223 249 227 226 240 236 233
330 329 325 320 316 311 307 305 286 273 264 257 258 239 233 270 282 278 267 285 285 272 261 269 281 282 303 302 263 222 210 230 235 234 226 220 252 221 222 223 233 246 202 226 220 234 232
332 329 325 318 311 304 293 289 285 273 262 257 251 242 232 263 255 278 268 271 297 297 280 254 269 289 277 262 239 227 215 211 221 227 226 223 222 246 212 236 234 234 236 214 231 240 229
336 337 330 321 309 305 298 284 269 263 256 255 252 240 228 249 264 263 254 287 296 256 273 281 329 290 231 252 242 226 226 218 221 211 209 204 212 221 227 246 250 248 244 195 222 237 223
332 330 325 325 323 310 298 285 281 255 249 249 250 236 225 257 266 255 255 262 251 251 270 321 300 198 242 251 252 233 237 224 223 226 210 202 199 215 222 228 232 219 185 217 232 236 253
335 333 332 331 335 330 317 307 293 269 256 235 243 242 239 240 258 267 260 253 248 253 264 288 282 313 327 283 337 301 267 245 223 219 232 205 210 218 209 219 309 210 230 217 258 257 250